When you browse on this site, cookies collect data to enhance your experience and personalize the content and advertising you see.
Visit our Privacy Policy to learn more. By continuing to use the site, you agree to this use of cookies and data.
  • In Spain
  • List of Countries
  • For 7 days
  • Water Temperature
  • Satellite Maps
  • Weather Map
  • Weather Widgets
  • user-avatar
    Login

    Hourly Weather Sukromenka

    Today, 20 January, Sunday

    Time Temperature Precipitation Wind Pressure Humidity
    00:00 -11°C° 0 mm 4 mps 747 mmHg 93%
    01:00 -11°C° 0 mm 4 mps 747 mmHg 93%
    02:00 -10°C° 0 mm 3 mps 748 mmHg 94%
    03:00 -11°C° 0 mm 4 mps 748 mmHg 95%
    04:00 -11°C° 0 mm 4 mps 748 mmHg 95%
    05:00 -12°C° 0 mm 5 mps 748 mmHg 96%
    06:00 -12°C° 0 mm 5 mps 748 mmHg 95%
    07:00 -12°C° 0 mm 5 mps 748 mmHg 95%
    08:00 -12°C° 0 mm 5 mps 747 mmHg 94%
    09:00 -12°C° 0 mm 6 mps 747 mmHg 92%
    10:00 -11°C° 0 mm 6 mps 747 mmHg 91%
    11:00 -11°C° 0 mm 6 mps 747 mmHg 89%
    12:00 -11°C° 0 mm 7 mps 747 mmHg 88%
    13:00 -11°C° 0 mm 7 mps 746 mmHg 87%
    14:00 -10°C° 0 mm 8 mps 746 mmHg 86%
    15:00 -11°C° 0 mm 7 mps 746 mmHg 87%
    16:00 -11°C° 0 mm 7 mps 746 mmHg 87%
    17:00 -11°C° 0 mm 7 mps 745 mmHg 87%
    18:00 -11°C° 0 mm 7 mps 745 mmHg 87%
    19:00 -10°C° 0 mm 6 mps 745 mmHg 87%
    20:00 -10°C° 0 mm 6 mps 745 mmHg 88%
    21:00 -11°C° 0 mm 6 mps 744 mmHg 88%
    22:00 -11°C° 0 mm 6 mps 744 mmHg 89%
    23:00 -11°C° 0 mm 6 mps 744 mmHg 90%

    Tomorrow, 21 January, Monday

    Time Temperature Precipitation Wind Pressure Humidity
    00:00 -12°C° 0.2 mm 6 mps 744 mmHg 91%
    01:00 -12°C° 0.2 mm 6 mps 744 mmHg 92%
    02:00 -12°C° 0.2 mm 6 mps 744 mmHg 93%
    03:00 -13°C° 0.2 mm 5 mps 743 mmHg 93%
    04:00 -13°C° 0.2 mm 5 mps 743 mmHg 94%
    05:00 -14°C° 0.2 mm 5 mps 743 mmHg 94%
    06:00 -14°C° 0.2 mm 4 mps 743 mmHg 94%
    07:00 -14°C° 0.2 mm 4 mps 742 mmHg 95%
    08:00 -14°C° 0.2 mm 4 mps 742 mmHg 95%
    09:00 -12°C° 0.1 mm 3 mps 742 mmHg 95%
    10:00 -10°C° 0.1 mm 3 mps 742 mmHg 94%
    11:00 -10°C° 0.1 mm 3 mps 742 mmHg 94%
    12:00 -10°C° 0 mm 4 mps 742 mmHg 92%
    13:00 -10°C° 0 mm 4 mps 742 mmHg 89%
    14:00 -10°C° 0 mm 5 mps 742 mmHg 87%
    15:00 -11°C° 0 mm 4 mps 743 mmHg 88%
    16:00 -12°C° 0 mm 4 mps 743 mmHg 88%
    17:00 -15°C° 0 mm 4 mps 743 mmHg 89%
    18:00 -16°C° 0 mm 4 mps 744 mmHg 90%
    19:00 -17°C° 0 mm 4 mps 744 mmHg 91%
    20:00 -18°C° 0 mm 4 mps 744 mmHg 93%
    21:00 -19°C° 0 mm 4 mps 745 mmHg 94%
    22:00 -19°C° 0 mm 3 mps 745 mmHg 95%
    23:00 -19°C° 0 mm 3 mps 746 mmHg 97%

    Day after tomorrow, 22 January, Tuesday

    Time Temperature Precipitation Wind Pressure Humidity
    00:00 -21°C° 0 mm 3 mps 746 mmHg 97%
    01:00 -22°C° 0 mm 3 mps 747 mmHg 98%
    02:00 -22°C° 0 mm 3 mps 747 mmHg 98%
    03:00 -22°C° 0 mm 3 mps 747 mmHg 98%
    04:00 -23°C° 0 mm 3 mps 747 mmHg 99%
    05:00 -23°C° 0 mm 3 mps 747 mmHg 99%
    06:00 -23°C° 0 mm 3 mps 748 mmHg 99%
    07:00 -23°C° 0 mm 3 mps 748 mmHg 99%
    08:00 -24°C° 0 mm 3 mps 748 mmHg 99%
    09:00 -22°C° 0 mm 3 mps 748 mmHg 98%
    10:00 -21°C° 0 mm 3 mps 749 mmHg 96%
    11:00 -19°C° 0 mm 3 mps 749 mmHg 95%
    12:00 -17°C° 0 mm 2 mps 749 mmHg 95%
    13:00 -17°C° 0 mm 2 mps 749 mmHg 95%
    14:00 -16°C° 0 mm 2 mps 749 mmHg 95%
    15:00 -15°C° 0 mm 1 mps 749 mmHg 96%
    16:00 -15°C° 0 mm 1 mps 749 mmHg 97%
    17:00 -16°C° 0 mm 1 mps 749 mmHg 98%
    18:00 -18°C° 0 mm 2 mps 750 mmHg 98%
    19:00 -17°C° 0 mm 2 mps 750 mmHg 98%
    20:00 -17°C° 0 mm 2 mps 750 mmHg 97%
    21:00 -16°C° 0 mm 2 mps 750 mmHg 97%
    22:00 -16°C° 0 mm 2 mps 750 mmHg 97%
    23:00 -15°C° 0 mm 2 mps 750 mmHg 96%

    23 January, Wednesday

    Time Temperature Precipitation Wind Pressure Humidity
    00:00 -16°C° 0 mm 2 mps 750 mmHg 96%
    01:00 -16°C° 0 mm 2 mps 750 mmHg 96%
    02:00 -16°C° 0 mm 2 mps 750 mmHg 97%
    03:00 -15°C° 0 mm 2 mps 750 mmHg 97%
    04:00 -15°C° 0 mm 2 mps 750 mmHg 97%
    05:00 -15°C° 0 mm 2 mps 750 mmHg 97%
    06:00 -15°C° 0 mm 2 mps 750 mmHg 97%
    07:00 -16°C° 0 mm 2 mps 751 mmHg 97%
    08:00 -16°C° 0 mm 2 mps 751 mmHg 97%
    09:00 -15°C° 0 mm 2 mps 751 mmHg 96%
    10:00 -14°C° 0 mm 3 mps 751 mmHg 95%
    11:00 -13°C° 0 mm 3 mps 751 mmHg 94%
    12:00 -13°C° 0 mm 3 mps 751 mmHg 94%
    13:00 -13°C° 0 mm 3 mps 751 mmHg 93%
    14:00 -12°C° 0 mm 3 mps 751 mmHg 92%
    15:00 -14°C° 0 mm 3 mps 751 mmHg 93%
    16:00 -15°C° 0 mm 3 mps 752 mmHg 94%
    17:00 -16°C° 0 mm 3 mps 752 mmHg 95%
    18:00 -17°C° 0 mm 3 mps 752 mmHg 93%
    19:00 -18°C° 0 mm 3 mps 752 mmHg 91%
    20:00 -18°C° 0 mm 3 mps 752 mmHg 89%
    21:00 -19°C° 0 mm 3 mps 752 mmHg 87%
    22:00 -21°C° 0 mm 3 mps 752 mmHg 85%
    23:00 -21°C° 0 mm 3 mps 753 mmHg 83%

    24 January, Thursday

    Time Temperature Precipitation Wind Pressure Humidity
    00:00 -21°C° 0 mm 3 mps 753 mmHg 82%
    01:00 -22°C° 0 mm 3 mps 753 mmHg 80%
    02:00 -22°C° 0 mm 3 mps 753 mmHg 79%
    03:00 -22°C° 0 mm 3 mps 752 mmHg 78%
    04:00 -22°C° 0 mm 3 mps 752 mmHg 77%
    05:00 -22°C° 0 mm 3 mps 752 mmHg 77%
    06:00 -22°C° 0 mm 3 mps 752 mmHg 77%
    07:00 -22°C° 0 mm 3 mps 752 mmHg 77%
    08:00 -22°C° 0 mm 3 mps 752 mmHg 77%
    09:00 -21°C° 0 mm 3 mps 752 mmHg 80%
    10:00 -18°C° 0 mm 3 mps 752 mmHg 82%
    11:00 -17°C° 0 mm 3 mps 752 mmHg 85%
    12:00 -16°C° 0 mm 3 mps 752 mmHg 87%
    13:00 -15°C° 0 mm 2 mps 751 mmHg 89%
    14:00 -14°C° 0 mm 2 mps 751 mmHg 91%
    15:00 -16°C° 0 mm 2 mps 751 mmHg 93%
    16:00 -17°C° 0 mm 2 mps 751 mmHg 94%
    17:00 -19°C° 0 mm 3 mps 751 mmHg 96%
    18:00 -17°C° 0 mm 2 mps 751 mmHg 96%
    19:00 -17°C° 0 mm 2 mps 751 mmHg 97%
    20:00 -16°C° 0 mm 2 mps 750 mmHg 97%
    21:00 -15°C° 0 mm 2 mps 750 mmHg 97%
    22:00 -16°C° 0 mm 3 mps 750 mmHg 97%
    23:00 -15°C° 0 mm 3 mps 750 mmHg 97%

    25 January, Friday

    Time Temperature Precipitation Wind Pressure Humidity
    00:00 -15°C° 0 mm 3 mps 750 mmHg 97%
    01:00 -14°C° 0 mm 3 mps 749 mmHg 96%
    02:00 -15°C° 0 mm 4 mps 749 mmHg 96%
    03:00 -15°C° 0 mm 4 mps 749 mmHg 96%
    04:00 -14°C° 0 mm 4 mps 748 mmHg 96%
    05:00 -14°C° 0 mm 4 mps 748 mmHg 96%
    06:00 -14°C° 0.2 mm 4 mps 748 mmHg 95%
    07:00 -14°C° 0.2 mm 5 mps 748 mmHg 95%
    08:00 -14°C° 0.2 mm 5 mps 748 mmHg 95%
    09:00 -14°C° 0.3 mm 5 mps 747 mmHg 95%
    10:00 -14°C° 0.3 mm 5 mps 747 mmHg 95%
    11:00 -13°C° 0.3 mm 5 mps 747 mmHg 95%
    12:00 -13°C° 0.1 mm 5 mps 746 mmHg 95%
    13:00 -12°C° 0.1 mm 4 mps 746 mmHg 94%
    14:00 -12°C° 0.1 mm 4 mps 745 mmHg 94%
    15:00 -12°C° 0.1 mm 4 mps 745 mmHg 94%
    16:00 -12°C° 0.1 mm 4 mps 745 mmHg 94%
    17:00 -12°C° 0.1 mm 4 mps 745 mmHg 94%
    18:00 -12°C° 0.1 mm 4 mps 744 mmHg 95%
    19:00 -12°C° 0.1 mm 4 mps 744 mmHg 95%
    20:00 -11°C° 0.1 mm 4 mps 744 mmHg 95%
    21:00 -11°C° 0.1 mm 4 mps 744 mmHg 95%
    22:00 -11°C° 0.1 mm 4 mps 743 mmHg 95%
    23:00 -10°C° 0.1 mm 3 mps 743 mmHg 95%
    Show more